Regional Weather Roundup
Issued by NWS Midland/Odessa, TX

Skip options and go directly to product.
Home | Oldest Version | Previous Version | Current Version | All | Graphics & Text | Save Text | Print | Product List | Glossary On

Skip product version selection by date and time.   
073
ASUS44 KMAF 090310
RWRMAF
MIDLAND AREA WEATHER ROUNDUP
NATIONAL WEATHER SERVICE MIDLAND TX
900 PM CST MON FEB 08 2016

...IN SOUTHWEST TEXAS AND SOUTHEAST NEW MEXICO...

CITY           SKY/WX    TMP DP  RH WIND       PRES   REMARKS
ALPINE         CLOUDY    34  17  49 SW7       30.44S WCI  28
ANDREWS        FAIR      38  14  36 CALM      30.41R
ARTESIA        CLOUDY    37  14  38 S5        30.38R WCI  34
BIG SPRING     CLEAR     40  15  35 CALM      30.41R
CARLSBAD       CLEAR     32  15  49 S7        30.36R WCI  26
DRYDEN           N/A     45  14  28 N5        30.38R
FORT STOCKTON  CLOUDY    39  20  46 S6        30.39R WCI  35
GUAD PASS      CLEAR     38  10  31 NE13      30.37S WCI  30
HOBBS          CLOUDY    39  12  33 CALM      30.41R
MARFA          CLOUDY    33  13  43 NW3       30.40R
MIDLAND AIRPK  CLEAR     45  18  33 CALM      30.40R
MIDLAND INTL   CLEAR     40  19  43 W3        30.39R
ODESSA         CLEAR     47  12  24 CALM      30.40R
PECOS          CLOUDY    42  14  32 CALM      30.39R
PRESIDIO       FAIR      51  14  22 CALM      30.36S
SEMINOLE       CLEAR     40  15  36 CALM      30.41R
SNYDER           N/A     44  19  36 NW7       30.38R
WINK           CLEAR     40  13  33 SW6       30.38R WCI  36
$$
...OTHER STATIONS IN TEXAS...

CITY           SKY/WX    TMP DP  RH WIND       PRES   REMARKS
ABILENE        CLEAR     46  16  30 N5        30.35R
AMARILLO       CLEAR     34  18  52 NW7       30.37S WCI  28
AUSTIN         CLEAR     43  20  39 W5        30.32R
BROWNSVILLE    CLOUDY    52  41  66 CALM      30.36R
CORPUS CHRISTI MOCLDY    55  22  27 NW5       30.35R
DALLAS FTW     CLEAR     47   9  21 NW12      30.27S
DEL RIO        CLEAR     49  21  33 CALM      30.39R
EL PASO        CLEAR     50  17  27 SE8       30.32R
HOUSTON INT    PTCLDY    52  13  21 NW8       30.27S
LUBBOCK        CLEAR     34  16  47 W7        30.38R WCI  28
SAN ANGELO     CLEAR     44  15  31 W7        30.36R
SAN ANTONIO    PTCLDY    47  25  42 NW6       30.35R
WACO           CLEAR     38  18  44 W8        30.30S WCI  32
WICHITA FALLS  NOT AVBL
$$
...OTHER LOCATIONS IN NEW MEXICO...

CITY           SKY/WX    TMP DP  RH WIND       PRES   REMARKS
ALAMAGORDO     CLEAR     45  16  31 CALM      30.34R
ALBUQUERQUE    PTCLDY    47  21  35 N8        30.37R
CANNON AFB     CLOUDY    34  14  43 NE10      30.40R WCI  26
CLOVIS         CLOUDY    37  18  44 N5        30.41S WCI  34
HOLLOMAN AFB   CLEAR     42  15  33 CALM      30.32R
ROSWELL        CLOUDY    38  14  37 SW5       30.38R WCI  34
RUIDOSO          N/A     37  10  32 W6        30.39S WCI  33
SANTA FE       CLEAR     41  17  38 CALM      30.37R
TRUTH OR CONSE CLEAR     50  13  22 N3        30.32R
TUCUMCARI      CLEAR     32  15  49 CALM      30.38S
$$

USA.gov is the U.S. government's official web portal to all federal, state and local government web resources and services.